Tracking 27420 objects as of 28-May-2023
HD Live streaming from Space Station
objects crossing your sky now

STARLINK-1458

Track STARLINK-1458 now!
10-day predictions
STARLINK-1458 is classified as:


NORAD ID: 45675
Int'l Code: 2020-035U
Perigee: 553.7 km
Apogee: 555.1 km
Inclination: 53.1 °
Period: 95.6 minutes
Semi major axis: 6925 km
RCS: Unknown
Launch date: June 4, 2020
Source: United States (US)
Launch site: AIR FORCE EASTERN TEST RANGE (AFETR)
Your satellite tracking list
Your tracking list is empty




NASA's NSSDC Master Catalog

Two Line Element Set (TLE):
1 45675U 20035U   23147.83171827 -.00000994  00000-0 -47887-4 0  9993
2 45675  53.0553 311.4695 0001003 102.8287 257.2814 15.06394889165432
Source of the keplerian elements: AFSPC